Regional Weather Roundup
Issued by NWS

Home | Current Version | Previous Version | Graphics & Text | Print | Product List | Glossary On
Versions: 1 2 3 4 5 6 7 8 9 10 11 12 13 14 15 16 17 18 19 20 21 22 23 24 25 26 27 28 29 30 31 32 33 34 35 36 37 38 39 40 41 42 43 44 45 46 47 48 49 50
000
ASUS43 KOAX 060310
RWRNE

WEATHER ROUNDUP FOR NEBRASKA
NATIONAL WEATHER SERVICE OMAHA NE
900 PM CST THU MAR 05 2015

NOTES: SATELLITE DATA IS BEING USED TO AUGMENT CLOUD COVER ABOVE
       12000 FEET.
       "FAIR" INDICATES FEW OR NO CLOUDS BELOW 12,000 FEET WITH NO
       SIGNIFICANT WEATHER AND/OR OBSTRUCTIONS TO VISIBILITY.

  * THESE STATIONS DO NOT REPORT WEATHER SUCH AS RAIN...SNOW OR FOG.

NEZ001>004-019>022-054>056-060400-
NEBRASKA PANHANDLE

CITY           SKY/WX    TMP DP  RH WIND       PRES   REMARKS
SCOTTSBLUFF    CLEAR     29  18  63 NW7       30.22S WCI  22
ALLIANCE       CLEAR     19  11  70 SW7       30.19S WCI  10
CHADRON        CLEAR     30  20  66 W10       30.18F WCI  21
KIMBALL        CLEAR     32  19  59 NW15      30.21S WCI  22
SIDNEY         CLEAR     31  18  58 W10       30.23F WCI  22
$$

NEZ057>060-069>072-079>082-060400-
SOUTHWEST NEBRASKA

CITY           SKY/WX    TMP DP  RH WIND       PRES   REMARKS
NORTH PLATTE   CLEAR     25  11  55 CALM      30.21R
IMPERIAL         N/A     33  12  41 W12       30.24R WCI  24
LEXINGTON      CLEAR     33   8  34 S7        30.20F WCI  27
MCCOOK         CLEAR     32  14  47 SW9       30.24R WCI  24
OGALLALA       CLEAR     28  14  54 W5        30.23R WCI  23
$$

NEZ005>010-023>029-035>040-094-060400-
NORTH CENTRAL NEBRASKA

CITY           SKY/WX    TMP DP  RH WIND       PRES   REMARKS
VALENTINE      CLEAR     29  17  61 W6        30.16S WCI  23
AINSWORTH      CLEAR     28  10  45 W3        30.16S
BROKEN BOW     CLEAR     34  11  38 S3        30.19R
O`NEILL        MOCLDY    31  11  43 S7        30.18F WCI  24
ORD            CLEAR     22   7  52 CALM      30.20F
THEDFORD       CLEAR     32  13  44 W7        30.19S WCI  26
$$

NEZ041-046>049-061>064-073>077-083>087-060400-
SOUTH CENTRAL NEBRASKA

CITY           SKY/WX    TMP DP  RH WIND       PRES   REMARKS
GRAND ISLAND   CLEAR     30   9  41 S14       30.25F WCI  19
AURORA         CLEAR     30   8  38 S13       30.26F WCI  20
HASTINGS       CLEAR     28   6  39 S9        30.25F WCI  19
HEBRON         CLEAR     29   8  40 S7        30.32S WCI  22
HOLDREGE       CLEAR     31   5  33 S10       30.23S WCI  22
KEARNEY *      FAIR      30   7  37 S15       30.23F WCI  19
YORK           PTCLDY    28   9  43 S12       30.28F WCI  18
$$

NEZ011>018-030>034-042>045-060400-
NORTHEAST NEBRASKA

CITY           SKY/WX    TMP DP  RH WIND       PRES   REMARKS
NORFOLK        MOCLDY    30   8  39 S13       30.23F WCI  20
ALBION         CLOUDY    30   6  37 S8        30.23F WCI  22
BLAIR          CLEAR     27   7  42 S12       30.33S WCI  17
COLUMBUS *     PTCLDY    28   7  40 S10       30.29F WCI  19
FREMONT        CLEAR     27   9  46 SE10      30.32F WCI  17
TEKAMAH        CLEAR     23   7  50 SE14      30.34F WCI  11
WAYNE          CLOUDY    26   7  44 S13       30.26F WCI  15
$$

NEZ050>053-065>068-078-088>093-060400-
SOUTHEAST NEBRASKA

CITY           SKY/WX    TMP DP  RH WIND       PRES   REMARKS
LINCOLN        CLEAR     24   9  52 S8        30.35S WCI  15
OMAHA EPPLEY   CLEAR     25   6  44 SE14      30.38F WCI  13
BEATRICE       CLEAR     28  10  46 SE8       30.34F WCI  20
FALLS CITY     CLEAR     21   6  52 SE7       30.42F WCI  12
NEBRASKA CITY  CLEAR     25   2  38 S14       30.38F WCI  13
PLATTSMOUTH    CLEAR     25   3  39 SE13      30.36F WCI  13
$$

NEZ044-045-051>053-067-060400-
OMAHA AREA

CITY           SKY/WX    TMP DP  RH WIND       PRES   REMARKS
OMAHA EPPLEY   CLEAR     25   6  44 SE14      30.38F WCI  13
BLAIR          CLEAR     27   7  42 S12       30.33S WCI  17
FREMONT        CLEAR     27   9  46 SE10      30.32F WCI  17
MILLARD        CLEAR     24   8  50 SE5       30.36F WCI  18
OFFUTT AFB     CLEAR     22   7  51 SE8       30.37F WCI  12
PLATTSMOUTH    CLEAR     25   3  39 SE13      30.36F WCI  13
WAHOO          FAIR      23   8  52 SE10      30.33F WCI  12
$$


USA.gov is the U.S. government's official web portal to all federal, state and local government web resources and services.